Tracking 35051 objects as of 17-Aug-2026
HD Live streaming from Space Station
objects crossing your sky now

TITAN 3C TRANSTAGE DEB


TITAN 3C TRANSTAGE DEB is no longer on orbit


NORAD ID: 1663
Int'l Code: 1965-082AA
Launch date: October 15, 1965
Source: United States (US)
Launch site: AIR FORCE EASTERN TEST RANGE (AFETR)
Decay date: 2002-05-04

Note: This is SATELLITE DEBRIS
Your satellite tracking list
Your tracking list is empty




NASA's NSSDC Master Catalog

Two Line Element Set (TLE):
1  1663U 65082AA  02123.84764617 +.08302249 +00000-0 +28330-1 0  9993
2  1663 032.3103 356.3663 0025218 221.9212 139.9812 15.83901258864798
Source of the keplerian elements: AFSPC